Lid_Strength_Index
4 4 4 4 4 4 4 4 4 5 4 4 3 3 4 3 3 3 2 1 4 5 4 4 5 5 4 4 7 5 6 5 6 8 8 8 8 8 9 8 10 10 12 12 11 13 16 5 6 11 7 5 5 5
3 3 3 4 3 3 3 4 4 4 4 3 3 2 3 3 2 3 3 2 2 5 4 3 3 3 3 4 4 4 6 6 4 6 6 6 8 7 8 11 7 11 8 11 11 10 6 4 5 4 4 5 5 4
3 3 3 3 3 3 3 3 3 3 3 3 2 2 2 2 2 2 3 2 2 5 4 4 4 2 2 2 1 5 3 4 4 4 4 5 8 6 10 9 8 7 6 9 9 7 6 5 4 4 3 4 3 3
2 2 2 2 2 2 2 2 2 2 3 3 2 1 1 2 2 2 3 3 3 4 7 4 2 3 2 2 2 1 2 2 2 3 5 5 7 5 6 7 7 6 6 7 8 7 6 5 4 4 3 3 4 4
1 2 2 1 2 2 2 2 2 2 2 2 2 1 1 1 1 1 1 2 3 4 6 5 2 2 2 2 2 1 2 3 4 5 6 6 4 6 5 6 7 5 6 9 9 5 5 5 4 3 4 4 4 5
2 1 1 1 1 2 2 2 2 2 2 2 1 1 0 1 1 2 4 1 1 3 4 7 3 3 2 1 2 2 2 3 3 4 5 4 4 5 7 8 6 4 4 3 5 4 4 4 3 3 3 4 4 5
1 1 1 1 1 1 1 2 2 2 2 2 2 1 1 0 1 4 5 2 2 2 4 6 5 3 2 2 2 3 2 2 3 4 6 5 5 5 6 9 6 4 4 4 3 4 5 4 5 3 3 4 5 6
1 1 0 0 1 1 1 1 1 2 2 2 2 1 1 0 0 2 0 1 1 3 3 7 6 5 2 4 5 2 4 4 4 4 4 6 5 5 8 5 5 4 4 4 4 3 3 3 3 4 4 4 6 6
0 0 0 0 0 0 1 1 1 1 1 2 1 1 0 1 3 1 -0 -0 1 4 8 6 8 8 3 4 3 4 3 7 4 6 5 5 6 8 6 5 5 4 5 4 3 3 3 4 4 4 5 5 7 7
0 0 0 0 0 0 0 0 1 1 1 1 1 3 5 1 -0 -0 2 5 5 5 6 7 4 7 4 5 6 6 5 6 8 6 5 7 7 4 4 3 3 3 3 3 5 5 4 4 4 5 5 5 6 6
-0 -0 -0 -0 0 0 0 0 0 1 1 2 3 4 -0 -0 2 3 7 8 7 9 7 5 5 7 3 7 7 5 7 6 9 8 8 8 9 5 4 3 3 3 2 3 2 2 2 3 4 4 5 5 6 6
-1 -1 -0 0 0 0 0 0 0 0 1 1 2 -0 1 4 5 8 9 8 9 10 7 7 5 5 5 3 6 6 7 7 10 6 8 10 6 4 4 3 3 3 3 3 2 3 3 3 4 4 5 6 6 5
-1 -1 -1 -0 0 0 0 0 0 0 1 -1 3 5 6 6 11 11 12 11 10 6 5 5 6 5 5 4 6 7 9 9 6 9 9 7 5 4 4 3 3 2 2 2 3 3 3 4 4 5 4 5 5 5
-0 -1 -0 -0 0 -0 -0 -0 -0 -0 0 4 7 10 8 9 8 8 7 6 5 5 5 5 6 7 5 8 8 10 7 7 10 11 10 6 5 4 4 3 3 3 3 3 3 4 5 5 5 4 4 5 5 5
-0 -0 -0 -0 -0 -0 -0 -0 -0 -1 2 6 7 10 8 5 4 5 4 4 4 3 4 5 6 6 8 9 9 9 10 11 10 9 7 5 4 4 4 3 3 3 3 3 3 4 5 5 5 4 3 4 5 5
-0 -0 -0 -0 -1 -1 -1 -1 -0 0 3 5 6 8 5 6 6 6 5 5 4 4 4 4 7 9 11 9 12 12 11 11 8 6 4 4 4 4 4 3 3 3 2 3 4 5 5 5 5 4 4 4 5 4
0 0 -1 -1 -1 -1 -0 1 1 4 5 6 7 4 5 6 6 5 5 5 2 5 8 6 9 10 7 11 11 9 9 6 5 4 4 3 4 4 3 3 3 2 3 4 4 4 4 4 3 4 4 5 5 4
2 -0 -1 -1 -1 0 1 1 3 6 7 6 7 5 4 4 5 5 4 3 4 6 6 8 5 9 9 11 9 6 5 4 3 3 4 3 3 3 3 3 2 3 4 4 4 4 4 4 4 4 4 5 5 4
1 -1 -1 -1 -0 1 3 3 3 7 6 4 4 3 3 4 3 3 3 3 3 3 3 6 8 9 8 5 6 5 3 3 4 4 4 3 2 2 2 2 3 4 4 4 4 4 4 4 4 4 3 5 6 5
-0 -1 -1 -0 -0 3 5 5 1 5 7 5 3 4 4 4 2 4 4 4 5 6 8 9 8 6 5 4 4 4 3 2 3 5 4 3 2 2 2 3 4 4 4 4 4 6 5 5 5 5 5 6 7 6
1 0 0 0 1 3 5 5 5 3 5 6 3 4 4 3 4 4 5 3 5 6 8 5 5 4 3 3 2 3 3 3 3 3 4 4 3 2 3 3 4 4 4 4 6 5 6 6 6 5 4 5 6 5
2 0 1 1 4 4 5 2 4 4 5 4 4 3 5 6 5 4 2 5 5 4 4 4 4 4 4 4 3 3 2 2 2 2 4 3 3 3 3 4 4 4 4 5 5 6 6 5 5 5 5 5 6 5
1 1 1 2 5 6 7 2 6 5 7 6 4 6 6 5 4 2 5 4 3 2 2 3 4 4 5 4 3 3 2 2 3 2 2 2 2 3 4 4 3 4 4 4 4 4 4 6 6 5 5 5 6 5
1 3 5 6 6 7 5 6 4 5 5 6 7 8 7 5 3 5 7 5 3 3 3 3 4 6 6 4 4 3 2 2 2 2 2 3 4 4 3 3 3 3 3 3 3 3 4 4 6 6 6 7 7 7
6 6 6 8 5 7 8 8 7 7 8 7 9 8 6 4 7 7 7 5 4 4 4 4 5 7 8 5 4 3 1 2 2 3 3 3 3 3 3 3 3 2 2 3 3 3 4 4 5 6 6 7 8 8
10 7 8 7 7 8 7 9 9 8 7 8 7 5 5 6 9 9 6 5 4 4 5 6 7 7 6 4 4 3 2 1 2 3 3 2 3 3 4 4 4 3 2 2 3 4 4 4 5 6 7 7 11 7
10 9 6 4 5 6 7 6 5 7 9 9 6 7 7 11 10 7 3 2 3 3 5 5 5 5 5 4 2 1 1 1 1 2 1 1 1 1 2 3 3 2 1 2 2 3 3 4 5 6 6 6 6 6
7 6 9 7 7 5 8 7 8 9 7 5 5 9 10 9 7 4 3 2 1 1 3 4 4 4 3 3 2 1 1 1 1 1 1 1 1 1 1 1 1 7 1 1 2 2 2 3 4 6 6 6 6 5
7 5 5 7 7 7 7 7 6 5 3 4 6 7 6 3 2 2 2 1 0 1 3 4 4 3 3 2 1 1 1 1 2 3 3 3 3 2 1 1 2 2 1 1 11 6 2 2 3 5 5 5 5 4
7 5 7 7 8 8 6 4 4 2 2 2 2 3 3 3 1 1 1 1 2 2 2 2 3 3 4 3 2 2 1 1 1 2 3 3 2 1 1 2 2 2 2 1 1 2 9 3 6 4 5 5 5 5
6 6 8 7 7 5 4 3 2 2 2 3 3 4 4 3 2 1 1 1 1 1 2 2 3 3 3 3 3 3 3 1 0 0 0 0 0 0 0 1 1 1 2 1 1 2 3 2 3 4 5 5 5 6
7 8 8 9 7 4 3 4 4 4 4 4 4 3 3 4 5 2 0 1 2 2 5 3 2 3 3 2 2 1 5 1 0 0 0 0 0 -0 -0 1 1 1 2 1 1 2 1 2 3 4 4 5 5 5
7 7 7 7 7 7 5 5 6 6 5 5 5 4 4 4 6 2 -0 0 1 2 2 2 1 1 1 1 1 1 5 0 2 7 8 7 6 3 -0 0 1 1 2 1 1 2 2 2 3 3 3 4 4 5